Simultaneous Nadir Overpasses (SNOs) Predictions

Prediction of SNOs between GOES-16 and LANDSAT-8 Satellite Orbit:

Table of predicted SNOs for the next 14.0 days since TLE Epoch: 6/10/2023
Index Date Time (GOES-16) GOES-16 Lat,Lon LANDSAT-8 Lat,Lon Distance(km) Time Diff (sec)
1 06/10/2023 15:20:47 -0.01, -75.19 0.36, -76.88 192.28 80
2 06/12/2023 15:05:57 -0.01, -75.20 -0.29, -73.93 145.15 80
3 06/13/2023 03:30:00 0.01, -75.20 -0.84, -79.11 445.37 80
4 06/14/2023 14:53:47 -0.01, -75.22 -0.95, -70.98 483.27 80
5 06/15/2023 03:17:50 0.01, -75.22 -0.18, -76.16 107.15 80
6 06/17/2023 03:03:00 0.01, -75.24 0.44, -73.20 231.42 80
7 06/17/2023 15:26:55 -0.01, -75.25 0.64, -78.36 353.32 80
8 06/19/2023 15:14:44 -0.02, -75.28 0.00, -75.40 14.16 80
9 06/21/2023 14:59:53 -0.03, -75.31 -0.64, -72.45 325.77 80
10 06/22/2023 03:23:57 0.02, -75.31 -0.46, -77.64 263.88 80
